Home   Weather   Rottenburg am Neckar   Past weeks

Flag for Germany Past Weather in Rottenburg am Neckar, Baden-Württemberg, Germany — Yesterday and Last 2 Weeks

Now
59 °F

Clear.


Feels Like: 60 °F
Forecast: 55 / 78 °F
Wind: 3 mph from Northwest

Location: Stuttgart-Echterdingen

Current Time: Aug 31, 2016 at 6:32:49 AM

Latest Report: Aug 31, 2016 at 5:50 AM


Visibility: 10 mi

Pressure: 30.15 "Hg

Humidity: 82%

Dew Point: 54 °F

Location of Rottenburg am NeckarLocation

Past Weather in Rottenburg am Neckar — Graph

°F

Rottenburg am Neckar Temperature Yesterday

Maximum temperature yesterday: 79 °F (at 4:20 PM)
Minimum temperature yesterday: 59 °F (at 3:50 AM)
Average temperature yesterday: 68 °F

High & Low Weather Summary for the Past Weeks

 TemperatureHumidityPressure
High91 °F (Aug 27, 2:50 PM)100% (Aug 19, 1:50 AM)30.42 "Hg (Aug 19, 1:50 AM)
Low54 °F (Aug 22, 1:50 AM)26% (Aug 27, 6:20 PM)29.83 "Hg (Aug 18, 5:20 AM)
Average69 °F67%30.09 "Hg
* Reported Aug 16 5:20 AM — Aug 31 5:20 AM, Rottenburg am Neckar, Weather by CustomWeather, © 2016

Note: Actual official high and low records may vary slightly from our data, if they occured in-between our weather recording intervals... More about our weather records

Advertising

Rottenburg am Neckar Weather History for the Previous 24 Hours

Scroll right to see more
 ConditionsComfort  
Time TempWeatherWind HumidityBarometerVisibility
5:20 AM
Wed, Aug 31
59 °FClear.2 mph82%30.15 "Hg10 mi
4:50 AM59 °FClear.1 mph82%30.15 "Hg10 mi
4:20 AM59 °FClear.1 mph82%30.18 "Hg10 mi
3:50 AM61 °FClear.1 mph77%30.18 "Hg10 mi
3:20 AM63 °FClear.2 mph73%30.18 "Hg10 mi
2:50 AM63 °FClear.2 mph73%30.18 "Hg10 mi
2:20 AM61 °FPassing clouds.3 mph77%30.18 "HgN/A
1:50 AM63 °FClear.No wind73%30.18 "Hg10 mi
1:20 AM63 °FClear.3 mph73%30.18 "Hg10 mi
12:50 AM63 °FClear.2 mph73%30.18 "Hg10 mi
12:20 AM63 °FClear.2 mph73%30.18 "Hg10 mi
11:50 PM
Tue, Aug 30
63 °FClear.1 mph73%30.18 "Hg10 mi
11:20 PM66 °FClear.2 mph64%30.18 "Hg10 mi
10:50 PM64 °FClear.2 mph68%30.18 "Hg10 mi
10:20 PM68 °FClear.3 mph60%30.18 "Hg10 mi
9:50 PM68 °FClear.3 mph60%30.18 "Hg10 mi
9:20 PM70 °FPassing clouds.3 mph57%30.18 "HgN/A
8:50 PM70 °FPassing clouds.5 mph53%30.18 "HgN/A
8:20 PM72 °FSunny.6 mph50%30.18 "Hg10 mi
7:50 PM73 °FSunny.8 mph47%30.18 "Hg10 mi
7:20 PM75 °FSunny.9 mph41%30.15 "Hg10 mi
6:50 PM77 °FSunny.10 mph39%30.15 "Hg10 mi
6:20 PM77 °FPassing clouds.8 mph39%30.18 "HgN/A
5:50 PM77 °FPassing clouds.8 mph39%30.18 "HgN/A
5:20 PM77 °FPassing clouds.6 mph39%30.18 "HgN/A
4:50 PM77 °FPassing clouds.9 mph42%30.18 "HgN/A
4:20 PM79 °FPassing clouds.6 mph39%30.18 "HgN/A
3:50 PM77 °FPassing clouds.7 mph42%30.21 "HgN/A
3:20 PM75 °FPassing clouds.7 mph44%30.21 "HgN/A
2:50 PM77 °FPassing clouds.9 mph47%30.21 "HgN/A
2:20 PM77 °FPassing clouds.9 mph44%30.21 "HgN/A
1:50 PM75 °FPassing clouds.6 mph54%30.24 "HgN/A
1:20 PM73 °FPassing clouds.7 mph53%30.24 "HgN/A
12:50 PM73 °FPassing clouds.7 mph57%30.24 "HgN/A
12:20 PM72 °FPassing clouds.6 mph57%30.24 "HgN/A
11:50 AM70 °FPassing clouds.9 mph64%30.27 "HgN/A
11:20 AM70 °FPassing clouds.8 mph64%30.27 "HgN/A
10:50 AM68 °FPassing clouds.5 mph69%30.27 "HgN/A
10:20 AM68 °FPassing clouds.6 mph69%30.27 "HgN/A
9:50 AM66 °FPassing clouds.5 mph73%30.24 "HgN/A
9:20 AM64 °FPassing clouds.7 mph73%30.24 "HgN/A
8:50 AM63 °FPassing clouds.3 mph77%30.24 "HgN/A
8:20 AM63 °FSunny.No wind83%30.24 "Hg10 mi
7:50 AM61 °FPassing clouds.No wind83%30.24 "HgN/A
7:20 AM59 °FPassing clouds.1 mph88%30.24 "HgN/A
6:50 AM59 °FPassing clouds.1 mph82%30.24 "HgN/A
6:20 AM59 °FPassing clouds.5 mph88%30.24 "HgN/A
Weather by CustomWeather, © 2016

See weather overviewHow to use our weather pages